• în România
  • Lista ţărilor
  • Pe 7 zile
  • Temperatura apei
  • Hartă satelitară
  • Meteo pe hartă
  • Widget-uri
  • user-avatar
    Intrare

    Meteo pe oră la Malanje

    Astăzi, 23 Septembrie, Sâmbătă

    Timp Temperatura Precipitaţii Vânt Presiune Umiditate
    00:00 +23°C° 0 mm 2 m/s 666 mmHg 72%
    01:00 +23°C° 0 mm 2 m/s 665 mmHg 75%
    02:00 +21°C° 0 mm 2 m/s 665 mmHg 78%
    03:00 +20°C° 0 mm 2 m/s 665 mmHg 82%
    04:00 +20°C° 0 mm 2 m/s 665 mmHg 86%
    05:00 +20°C° 0 mm 2 m/s 665 mmHg 84%
    06:00 +20°C° 0 mm 2 m/s 665 mmHg 83%
    07:00 +20°C° 0 mm 2 m/s 666 mmHg 82%
    08:00 +25°C° 0 mm 2 m/s 667 mmHg 69%
    09:00 +28°C° 0 mm 1 m/s 667 mmHg 55%
    10:00 +31°C° 0 mm 1 m/s 668 mmHg 42%
    11:00 +34°C° 0 mm 1 m/s 668 mmHg 35%
    12:00 +36°C° 0 mm 1 m/s 667 mmHg 29%
    13:00 +39°C° 0 mm 1 m/s 667 mmHg 22%
    14:00 +37°C° 0 mm 1 m/s 666 mmHg 23%
    15:00 +35°C° 0 mm 1 m/s 666 mmHg 25%
    16:00 +34°C° 0 mm 1 m/s 665 mmHg 26%
    17:00 +32°C° 0 mm 2 m/s 665 mmHg 29%
    18:00 +31°C° 0 mm 2 m/s 665 mmHg 33%
    19:00 +29°C° 0 mm 2 m/s 665 mmHg 37%
    20:00 +28°C° 0 mm 2 m/s 665 mmHg 44%
    21:00 +27°C° 0 mm 3 m/s 666 mmHg 51%
    22:00 +25°C° 0 mm 3 m/s 666 mmHg 58%
    23:00 +24°C° 0 mm 3 m/s 666 mmHg 64%

    Mâine, 24 Septembrie, Duminică

    Timp Temperatura Precipitaţii Vânt Presiune Umiditate
    00:00 +22°C° 0 mm 3 m/s 666 mmHg 70%
    01:00 +21°C° 0 mm 3 m/s 666 mmHg 76%
    02:00 +21°C° 0 mm 3 m/s 665 mmHg 79%
    03:00 +20°C° 0 mm 3 m/s 665 mmHg 82%
    04:00 +20°C° 0 mm 3 m/s 665 mmHg 85%
    05:00 +20°C° 0 mm 3 m/s 665 mmHg 83%
    06:00 +20°C° 0 mm 3 m/s 666 mmHg 81%
    07:00 +20°C° 0 mm 3 m/s 666 mmHg 79%
    08:00 +24°C° 0 mm 3 m/s 667 mmHg 68%
    09:00 +27°C° 0 mm 3 m/s 667 mmHg 57%
    10:00 +30°C° 0 mm 3 m/s 668 mmHg 45%
    11:00 +32°C° 0 mm 2 m/s 668 mmHg 38%
    12:00 +36°C° 0 mm 2 m/s 667 mmHg 32%
    13:00 +39°C° 0 mm 1 m/s 667 mmHg 25%
    14:00 +37°C° 0 mm 2 m/s 666 mmHg 26%
    15:00 +36°C° 0 mm 2 m/s 665 mmHg 27%
    16:00 +35°C° 0 mm 2 m/s 665 mmHg 28%
    17:00 +32°C° 0,5 mm 2 m/s 665 mmHg 35%
    18:00 +30°C° 0,5 mm 2 m/s 664 mmHg 42%
    19:00 +28°C° 0,5 mm 2 m/s 664 mmHg 49%
    20:00 +27°C° 0 mm 2 m/s 665 mmHg 53%
    21:00 +26°C° 0 mm 3 m/s 665 mmHg 58%
    22:00 +25°C° 0 mm 3 m/s 666 mmHg 63%
    23:00 +24°C° 0 mm 3 m/s 665 mmHg 68%

    Poimâine, 25 Septembrie, Luni

    Timp Temperatura Precipitaţii Vânt Presiune Umiditate
    00:00 +22°C° 0 mm 3 m/s 665 mmHg 72%
    01:00 +21°C° 0 mm 3 m/s 664 mmHg 77%
    02:00 +21°C° 0 mm 4 m/s 664 mmHg 80%
    03:00 +20°C° 0 mm 4 m/s 664 mmHg 82%
    04:00 +20°C° 0 mm 4 m/s 664 mmHg 85%
    05:00 +20°C° 0 mm 4 m/s 664 mmHg 82%
    06:00 +20°C° 0 mm 4 m/s 665 mmHg 80%
    07:00 +20°C° 0 mm 4 m/s 666 mmHg 78%
    08:00 +24°C° 0 mm 3 m/s 666 mmHg 68%
    09:00 +26°C° 0 mm 3 m/s 667 mmHg 59%
    10:00 +28°C° 0 mm 3 m/s 667 mmHg 49%
    11:00 +30°C° 0 mm 3 m/s 667 mmHg 43%
    12:00 +33°C° 0 mm 3 m/s 666 mmHg 37%
    13:00 +36°C° 0 mm 3 m/s 665 mmHg 31%
    14:00 +35°C° 0 mm 3 m/s 665 mmHg 31%
    15:00 +35°C° 0 mm 3 m/s 664 mmHg 32%
    16:00 +34°C° 0 mm 3 m/s 664 mmHg 32%
    17:00 +31°C° 0 mm 3 m/s 664 mmHg 37%
    18:00 +29°C° 0 mm 4 m/s 664 mmHg 42%
    19:00 +28°C° 0 mm 4 m/s 664 mmHg 47%
    20:00 +27°C° 0,1 mm 4 m/s 664 mmHg 52%
    21:00 +25°C° 0,1 mm 4 m/s 665 mmHg 56%
    22:00 +23°C° 0,1 mm 4 m/s 665 mmHg 61%
    23:00 +22°C° 0 mm 4 m/s 664 mmHg 66%

    26 Septembrie, Marţi

    Timp Temperatura Precipitaţii Vânt Presiune Umiditate
    00:00 +22°C° 0 mm 4 m/s 664 mmHg 71%
    01:00 +21°C° 0 mm 3 m/s 664 mmHg 76%
    02:00 +20°C° 0 mm 3 m/s 664 mmHg 78%
    03:00 +20°C° 0 mm 3 m/s 664 mmHg 81%
    04:00 +19°C° 0 mm 3 m/s 664 mmHg 83%
    05:00 +20°C° 0 mm 3 m/s 664 mmHg 81%
    06:00 +20°C° 0 mm 3 m/s 665 mmHg 78%
    07:00 +20°C° 0 mm 3 m/s 666 mmHg 76%
    08:00 +24°C° 0 mm 3 m/s 666 mmHg 65%
    09:00 +26°C° 0 mm 3 m/s 666 mmHg 55%
    10:00 +29°C° 0 mm 3 m/s 667 mmHg 44%
    11:00 +31°C° 0 mm 3 m/s 666 mmHg 39%
    12:00 +33°C° 0 mm 3 m/s 665 mmHg 34%
    13:00 +35°C° 0 mm 3 m/s 664 mmHg 29%
    14:00 +35°C° 0 mm 3 m/s 664 mmHg 30%
    15:00 +34°C° 0 mm 3 m/s 664 mmHg 30%
    16:00 +34°C° 0 mm 3 m/s 663 mmHg 30%
    17:00 +31°C° 0 mm 3 m/s 664 mmHg 35%
    18:00 +29°C° 0 mm 4 m/s 664 mmHg 40%
    19:00 +27°C° 0 mm 4 m/s 664 mmHg 44%
    20:00 +26°C° 0 mm 4 m/s 664 mmHg 48%
    21:00 +25°C° 0 mm 4 m/s 664 mmHg 51%
    22:00 +24°C° 0 mm 3 m/s 665 mmHg 55%
    23:00 +23°C° 0 mm 4 m/s 664 mmHg 61%

    27 Septembrie, Miercuri

    Timp Temperatura Precipitaţii Vânt Presiune Umiditate
    00:00 +22°C° 0 mm 4 m/s 664 mmHg 67%
    01:00 +21°C° 0 mm 4 m/s 664 mmHg 72%
    02:00 +20°C° 0 mm 3 m/s 664 mmHg 75%
    03:00 +20°C° 0 mm 3 m/s 664 mmHg 78%
    04:00 +19°C° 0 mm 2 m/s 664 mmHg 82%
    05:00 +19°C° 0 mm 2 m/s 665 mmHg 79%
    06:00 +20°C° 0 mm 2 m/s 665 mmHg 77%
    07:00 +20°C° 0 mm 2 m/s 666 mmHg 75%
    08:00 +24°C° 0 mm 2 m/s 666 mmHg 61%
    09:00 +28°C° 0 mm 2 m/s 667 mmHg 48%
    10:00 +31°C° 0 mm 2 m/s 667 mmHg 34%
    11:00 +34°C° 0 mm 2 m/s 667 mmHg 31%
    12:00 +35°C° 0 mm 2 m/s 666 mmHg 27%
    13:00 +37°C° 0 mm 2 m/s 665 mmHg 23%
    14:00 +36°C° 0 mm 2 m/s 665 mmHg 25%
    15:00 +35°C° 0 mm 2 m/s 664 mmHg 26%
    16:00 +34°C° 0 mm 2 m/s 664 mmHg 28%
    17:00 +32°C° 0 mm 2 m/s 664 mmHg 31%
    18:00 +30°C° 0 mm 2 m/s 665 mmHg 34%
    19:00 +29°C° 0 mm 3 m/s 665 mmHg 37%
    20:00 +28°C° 0 mm 3 m/s 665 mmHg 40%
    21:00 +27°C° 0 mm 3 m/s 665 mmHg 44%
    22:00 +25°C° 0 mm 3 m/s 665 mmHg 48%
    23:00 +24°C° 0 mm 3 m/s 665 mmHg 55%

    28 Septembrie, Joi

    Timp Temperatura Precipitaţii Vânt Presiune Umiditate
    00:00 +22°C° 0 mm 3 m/s 665 mmHg 62%
    01:00 +21°C° 0 mm 3 m/s 664 mmHg 70%
    02:00 +20°C° 0 mm 3 m/s 664 mmHg 73%
    03:00 +20°C° 0 mm 2 m/s 664 mmHg 77%
    04:00 +19°C° 0 mm 2 m/s 664 mmHg 80%
    05:00 +21°C° 0,3 mm 1 m/s 665 mmHg 78%
    06:00 +21°C° 0,3 mm 1 m/s 666 mmHg 77%
    07:00 +21°C° 0,3 mm 1 m/s 666 mmHg 75%
    08:00 +24°C° 0,2 mm 1 m/s 667 mmHg 64%
    09:00 +28°C° 0,2 mm 1 m/s 667 mmHg 52%
    10:00 +31°C° 0,2 mm 1 m/s 668 mmHg 41%
    11:00 +32°C° 0 mm 1 m/s 667 mmHg 37%
    12:00 +33°C° 0 mm 1 m/s 666 mmHg 33%
    13:00 +35°C° 0 mm 1 m/s 666 mmHg 29%
    14:00 +34°C° 0 mm 1 m/s 665 mmHg 29%
    15:00 +34°C° 0 mm 1 m/s 665 mmHg 30%
    16:00 +33°C° 0 mm 1 m/s 665 mmHg 30%
    17:00 +31°C° 0,1 mm 1 m/s 665 mmHg 34%
    18:00 +30°C° 0,1 mm 1 m/s 665 mmHg 38%
    19:00 +28°C° 0,1 mm 1 m/s 665 mmHg 42%
    20:00 +27°C° 0,2 mm 1 m/s 665 mmHg 46%
    21:00 +26°C° 0,2 mm 1 m/s 665 mmHg 49%
    22:00 +26°C° 0,2 mm 1 m/s 666 mmHg 52%
    23:00 +25°C° 0,2 mm 1 m/s 666 mmHg 56%
    Arată mai mult